Hourly Data Report for October 28, 2015

All times are specified in Local Standard Time (LST). Add 1 hour to adjust for Daylight Saving Time where and when it is observed.

RESOLUTE BAY A
NUNAVUT

74°43'01.000" N
94°58'10.000" W
67.70 m
2403498
71924
YRB

Download Data

Hourly Data (October 2015)
Hourly Data Report for October 28, 2015
Temp Definition
°C
Dew Point Temp Definition
°C
Rel Hum Definition
%
Wind Dir Definition
10's deg

Wind Spd Definition
km/h
Visibility Definition
km
Stn Press Definition
kPa
Hmdx Definition


Wind Chill Definition


Weather Definition


TIME
00:00 Legend Double Dagger -20.7 -23.2 81 35 16 24.1 100.40   -30 Ice Crystals
01:00 Legend Double Dagger -21.3 -23.6 82 34 27 24.1 100.41   -34 Ice Crystals
02:00 Legend Double Dagger -22.3 -24.9 80 36 26 24.1 100.41   -35 Ice Crystals
03:00 Legend Double Dagger -23.1 -25.8 79 1 32 24.1 100.43   -37 Ice Crystals
04:00 Legend Double Dagger -23.0 -25.6 80 1 27 24.1 100.45   -36 Ice Crystals
05:00 Legend Double Dagger -22.2 -24.5 82 35 28 24.1 100.43   -35 Ice Crystals
06:00 Legend Double Dagger -21.5 -23.4 85 35 17 24.1 100.43   -32 Snow
07:00 Legend Double Dagger -21.7 -24.1 81 34 17 24.1 100.43   -32 Snow
08:00 Legend Double Dagger -22.8 -25.4 80 35 18 24.1 100.43   -33 LegendNANA
09:00 Legend Double Dagger -24.0 -26.5 80 35 25 24.1 100.43   -37 Clear
10:00 Legend Double Dagger -25.0 -27.7 79 32 16 16.1 100.44   -36 LegendNANA
11:00 Legend Double Dagger -24.0 -26.8 78 1 4 24.1 100.45   -28 LegendNANA
12:00 Legend Double Dagger -22.8 -25.4 80 32 20 24.1 100.53   -34 Clear
13:00 Legend Double Dagger -23.5 -26.0 80 32 27 12.9 100.56   -37 LegendNANA
14:00 Legend Double Dagger -23.7 -26.5 78 2 31 12.9 100.54   -38 LegendNANA
15:00 Legend Double Dagger -22.9 -25.5 80 2 43 0.8 100.52   -38 Freezing Fog
16:00 Legend Double Dagger -22.5 -24.9 81 36 25 1.2 100.58   -35 Fog
17:00 Legend Double Dagger -22.2 -24.6 81 35 21 1.2 100.58   -34 Snow,Fog
18:00 Legend Double Dagger -21.2 -23.7 81 34 27 12.9 100.58   -34 Mainly Clear
19:00 Legend Double Dagger -20.4 -22.6 83 34 30 12.9 100.57   -33 Ice Crystals
20:00 Legend Double Dagger -21.0 -23.5 81 35 11 24.1 100.53   -29 Ice Crystals
21:00 Legend Double Dagger -19.1 -21.3 83 36 34 11.3 100.52   -32 Ice Crystals
22:00 Legend Double Dagger -20.5 -23.1 80 3 35 24.1 100.50   -34 Ice Crystals,Blowing Snow
23:00 Legend Double Dagger -19.5 -22.0 81 2 41 24.1 100.50   -34 Ice Crystals,Blowing Snow

Notes on Data Quality.

Legend

  • E = Estimated
  • M = Missing
  • NA = Not Available
  • ‡ = Partner data that is not subject to review by the National Climate Archives
Date modified: